Regional Weather Roundup
Issued by NWS

Home | Current Version | Previous Version | Graphics & Text | Print | Product List | Glossary On
Versions: 1 2 3 4 5 6 7 8 9 10 11 12 13 14 15 16 17 18 19 20 21 22 23 24 25 26 27 28 29 30 31 32 33 34 35 36 37 38 39 40 41 42 43 44 45 46 47 48 49 50
000
ASUS43 KOAX 261210
RWRNE

WEATHER ROUNDUP FOR NEBRASKA
NATIONAL WEATHER SERVICE OMAHA NE
700 AM CDT SAT JUL 26 2014

NOTES: SATELLITE DATA IS BEING USED TO AUGMENT CLOUD COVER ABOVE
       12000 FEET.
       "FAIR" INDICATES FEW OR NO CLOUDS BELOW 12,000 FEET WITH NO
       SIGNIFICANT WEATHER AND/OR OBSTRUCTIONS TO VISIBILITY.

  * THESE STATIONS DO NOT REPORT WEATHER SUCH AS RAIN...SNOW OR FOG.

NEZ001>004-019>022-054>056-261300-
NEBRASKA PANHANDLE

CITY           SKY/WX    TMP DP  RH WIND       PRES   REMARKS
SCOTTSBLUFF    PTCLDY    63  53  70 NW12      30.02R
6HR MIN TEMP:  61; 6HR MAX TEMP:  69;

ALLIANCE       PTCLDY    56  52  86 W8        29.99R
6HR MIN TEMP:  56; 6HR MAX TEMP:  69;

CHADRON        PTCLDY    59  52  77 CALM      29.98R
6HR MIN TEMP:  58; 6HR MAX TEMP:  79;

KIMBALL        PTCLDY    67  49  51 NW13      30.05S
SIDNEY         PTCLDY    69  49  48 W12       30.03R
6HR MIN TEMP:  61; 6HR MAX TEMP:  70;

$$

NEZ057>060-069>072-079>082-261300-
SOUTHWEST NEBRASKA

CITY           SKY/WX    TMP DP  RH WIND       PRES   REMARKS
NORTH PLATTE   CLEAR     66  64  93 S3        29.88S
6HR MIN TEMP:  65; 6HR MAX TEMP:  76;

IMPERIAL       CLEAR     67  60  78 W8        29.92S
6HR MIN TEMP:  67; 6HR MAX TEMP:  73;

LEXINGTON      PTCLDY    70  68  94 CALM      29.87R
MCCOOK         CLEAR     67  65  93 W8        29.88S
6HR MIN TEMP:  66; 6HR MAX TEMP:  75;

OGALLALA       CLEAR     61  60  96 CALM      29.92R
$$

NEZ005>010-023>029-035>040-094-261300-
NORTH CENTRAL NEBRASKA

CITY           SKY/WX    TMP DP  RH WIND       PRES   REMARKS
VALENTINE      PTCLDY    69  68  96 E5        29.85S FOG
6HR MIN TEMP:  69; 6HR MAX TEMP:  74; 6HR PCP: TRACE;

AINSWORTH      CLOUDY    69  69 100 SE5       29.85S FOG
BROKEN BOW     CLEAR     65  63  93 CALM      29.88S FOG
6HR MIN TEMP:  65; 6HR MAX TEMP:  72;

O`NEILL        FOG       73  69  89 S5        29.87F VSB 1/4
ORD            MOCLDY    74  72  93 CALM      29.86S FOG
6HR MIN TEMP:  68; 6HR MAX TEMP:  75;

THEDFORD       CLEAR     67  66  96 SE6       29.87F
$$

NEZ041-046>049-061>064-073>077-083>087-261300-
SOUTH CENTRAL NEBRASKA

CITY           SKY/WX    TMP DP  RH WIND       PRES   REMARKS
GRAND ISLAND   CLOUDY    74  72  93 NE5       29.85F FOG
6HR MIN TEMP:  73; 6HR MAX TEMP:  77;

AURORA         FOG       76  76 100 NE3       29.84F VSB 1/4
HASTINGS       PTCLDY    73  68  84 NE7       29.82F HAZE
6HR MIN TEMP:  72; 6HR MAX TEMP:  77;

HEBRON         CLOUDY    77  73  86 N3        29.82R HAZE
HOLDREGE       PTCLDY    70  67  92 N3        29.85R
KEARNEY *      PTCLDY    72  68  88 NW7       29.85R
YORK           FOG       75  75 100 E5        29.84R VSB 1/2
$$

NEZ011>018-030>034-042>045-261300-
NORTHEAST NEBRASKA

CITY           SKY/WX    TMP DP  RH WIND       PRES   REMARKS
NORFOLK        CLEAR     72  70  93 CALM      29.85R FOG
6HR MIN TEMP:  69; 6HR MAX TEMP:  76; 6HR PCP:  0.01;

ALBION         CLOUDY    74  73  95 CALM      29.87S FOG
BLAIR          MOCLDY    71  69  93 CALM      29.81S FOG
COLUMBUS *     MOCLDY    73  70  88 CALM      29.84S
FREMONT        PTCLDY    75  73  93 E5        29.81S FOG
WAYNE          PTCLDY    67  67  97 CALM      29.83R FOG
$$

NEZ050>053-065>068-078-088>093-261300-
SOUTHEAST NEBRASKA

CITY           SKY/WX    TMP DP  RH WIND       PRES   REMARKS
LINCOLN        CLOUDY    75  72  90 NE8       29.81R
6HR MIN TEMP:  75; 6HR MAX TEMP:  79;

OMAHA EPPLEY   MOCLDY    73  69  87 N3        29.81R
6HR MIN TEMP:  72; 6HR MAX TEMP:  77;

BEATRICE       CLOUDY    75  75 100 NE8       29.80R FOG
FALLS CITY     MOCLDY    76  71  85 S5        29.77S
6HR MIN TEMP:  75; 6HR MAX TEMP:  82;

NEBRASKA CITY  MOCLDY    71  71 100 NE3       29.80R FOG
PLATTSMOUTH    MOCLDY    72  69  92 CALM      29.81R FOG
$$

NEZ044-045-051>053-067-261300-
OMAHA AREA

CITY           SKY/WX    TMP DP  RH WIND       PRES   REMARKS
OMAHA EPPLEY   MOCLDY    73  69  87 N3        29.81R
6HR MIN TEMP:  72; 6HR MAX TEMP:  77;

BLAIR          MOCLDY    71  69  93 CALM      29.81S FOG
FREMONT        PTCLDY    75  73  93 E5        29.81S FOG
MILLARD        MOCLDY    75  72  89 CALM      29.81R
OFFUTT AFB     MOCLDY    73  73 100 E2        29.80R
PLATTSMOUTH    MOCLDY    72  69  92 CALM      29.81R FOG
WAHOO          FAIR      73  71  91 SW3       29.82R FOG
$$


USA.gov is the U.S. government's official web portal to all federal, state and local government web resources and services.